Location: Ethel Rock
(53.4667°N, 4.5667°W)
Time: 05:27:36
(UTC+00:00)

Intercosmos 24 - Pass Details

Date: 24 October 2020
Orbit: 498 x 2379 km, 82.6° (Epoch: 25 November)

Event Time Altitude Azimuth Distance (km) Brightness Sun altitude
Rises 05:41:01 0° 345° (NNW) 3,288 7.6 -12.7°
Reaches altitude 10° 05:43:45 10° 339° (NNW) 2,138 6.6 -12.3°
Maximum altitude 05:47:58 41° 269° (W) 825 4.2 -11.7°
Drops below altitude 10° 05:51:24 10° 198° (SSW) 1,732 6.2 -11.2°
Sets 05:53:24 0° 190° (S) 2,581 7.2 -10.9°
